EW4229 Weather Reports


time (UTC)temp
C
wind
direction
speed
KPH
gust
KPH
rain 1hr
cm
rain 24hr
cm
rain mn
cm
humidity
%
barometer
mb
20260831081539 20 319 0.0 0.0 0.00 0.00 0.00 91 1018.3
20260831080029 20 250 0.0 0.0 0.00 0.00 0.00 92 1018.3
20260831074526 21 251 0.0 0.0 0.00 0.00 0.00 92 1018.3
20260831073026 21 252 0.0 0.0 0.00 0.00 0.00 92 1018.4
20260831071526 21 252 0.0 0.0 0.00 0.00 0.00 92 1018.4
20260831070026 21 252 0.0 0.0 0.00 0.00 0.00 91 1018.6
20260831064519 21 245 0.0 0.0 0.00 0.00 0.00 91 1018.7
20260831063018 21 245 0.0 0.0 0.00 0.00 0.00 1018.7
20260831061514 -17 0.0 0.0 0.00 0.00 0.00 1018.8
20260831060008 -17 0.0 0.0 0.00 0.00 0.00 1019.0
20260831054504 -17 0.0 0.0 0.00 0.00 0.00 1019.0
20260831053105 -17 0.0 0.0 0.00 0.00 0.00 1018.9
20260831051619 22 356 0.0 0.0 0.00 0.00 0.00 85 1018.9
20260831050056 22 356 0.0 0.0 0.00 0.00 0.00 85 1018.9
20260831044555 23 356 0.0 0.0 0.00 0.00 0.00 82 1018.9
20260831043050 23 356 0.0 1.6 0.00 0.00 0.00 81 1018.8
20260831041552 23 30 0.0 1.6 0.00 0.00 0.00 81 1018.6
20260831040052 23 82 0.0 3.2 0.00 0.00 0.00 80 1018.6
20260831034549 23 91 0.0 4.8 0.00 0.00 0.00 79 1018.9
20260831033050 24 308 0.0 1.6 0.00 0.00 0.00 79 1019.1
20260831031548 24 358 0.0 0.0 0.00 0.00 0.00 81 1019.2
20260831030046 24 326 0.0 1.6 0.00 0.00 0.00 79 1019.3
20260831024558 24 322 0.0 1.6 0.00 0.00 0.00 80 1019.2
20260831023045 24 326 0.0 1.6 0.00 0.00 0.00 80 1019.2
20260831021556 24 326 0.0 1.6 0.00 0.00 0.00 83 1019.2
20260831020045 24 357 1.6 6.4 0.00 0.00 0.00 84 1019.1
20260831014544 23 320 0.0 0.0 0.00 0.00 0.00 85 1019.1
20260831013044 24 320 0.0 0.0 0.00 0.00 0.00 84 1019.1
20260831011544 24 321 0.0 0.0 0.00 0.00 0.00 84 1018.9
20260831010117 24 321 0.0 0.0 0.00 0.00 0.00 83 1018.8
20260831004549 24 321 0.0 0.0 0.00 0.00 0.00 83 1018.5
20260831003043 24 321 0.0 0.0 0.00 0.00 0.00 83 1018.2
20260831001553 25 321 0.0 0.0 0.00 0.00 0.00 81 1017.8
20260831000043 24 290 0.0 0.0 0.00 0.00 0.00 84 1017.4
20260830234542 25 290 0.0 0.0 0.00 0.00 0.00 83 1017.6
20260830233042 25 290 0.0 0.0 0.00 0.00 0.00 80 1017.6
20260830231541 25 290 0.0 0.0 0.00 0.00 0.00 81 1017.7
20260830230049 26 285 0.0 0.0 0.00 0.00 0.00 85 1017.8
20260830224550 -17 0.0 0.0 0.00 0.00 0.00 1017.8
20260830223042 -17 0.0 0.0 0.00 0.00 0.00 1017.9
20260830221539 27 89 0.0 1.6 0.00 0.00 0.00 79 1017.7
20260830220138 27 88 0.0 1.6 0.00 0.00 0.00 78 1017.5
20260830214541 27 89 0.0 1.6 0.00 0.00 0.00 76 1017.4
20260830213035 -17 0.0 0.0 0.00 0.00 0.00 1017.5
20260830211531 28 0.0 0.0 0.00 0.00 0.00 70 1017.4
20260830210031 29 323 0.0 3.2 0.00 0.00 0.00 68 1017.5
20260830204531 30 162 0.0 6.4 0.00 0.00 0.00 68 1017.4
20260830203027 29 326 0.0 4.8 0.00 0.00 0.00 68 1017.6
20260830201526 28 319 0.0 4.8 0.00 0.00 0.00 70 1017.6
20260830200022 29 153 1.6 4.8 0.00 0.00 0.00 67 1017.7
20260830194520 29 120 1.6 6.4 0.00 0.00 0.00 68 1017.9
20260830193016 28 260 1.6 11.3 0.00 0.00 0.00 67 1018.2
20260830191514 28 311 4.8 9.7 0.00 0.00 0.00 70 1018.5
20260830190019 28 31 0.0 3.2 0.00 0.00 0.00 73 1018.8
20260830184513 28 322 1.6 14.5 0.00 0.00 0.00 70 1019.0
20260830183012 28 319 1.6 8.0 0.00 0.00 0.00 70 1019.2
20260830181506 28 319 1.6 9.7 0.00 0.00 0.00 72 1019.3
20260830180006 27 310 1.6 8.0 0.00 0.00 0.00 75 1019.5
20260830174502 -17 0.0 0.0 0.00 0.00 0.00 1019.8
20260830173127 -17 180 0.0 0.0 0.00 0.00 0.00 1020.0
20260830171601 26 0.0 0.0 0.00 0.00 0.00 1020.0
20260830170049 -17 0.0 0.0 0.00 0.00 0.00 1020.4
20260830164545 -17 0.0 0.0 0.00 0.00 0.00 1020.3
20260830163041 -17 0.0 0.0 0.00 0.00 0.00 1020.4
20260830161542 -17 0.0 0.0 0.00 0.00 0.00 1020.5
20260830160035 25 162 0.0 0.0 0.00 0.00 0.00 1020.6
20260830154532 -17 0.0 0.0 0.00 0.00 0.00 1021.0
20260830153026 -17 226 4.8 0.0 0.00 0.00 0.00 1021.1
20260830151521 22 0.0 0.0 0.00 0.00 0.00 85 1021.1
20260830150019 22 316 0.0 4.8 0.00 0.00 0.00 86 1021.1
20260830144518 21 321 1.6 4.8 0.00 0.00 0.00 87 1021.2
20260830143012 21 36 0.0 1.6 0.00 0.00 0.00 86 1021.3
20260830141507 20 143 0.0 1.6 0.00 0.00 0.00 86 1021.3
20260830140007 20 17 0.0 1.6 0.00 0.00 0.00 85 1021.4
20260830134515 20 141 0.0 1.6 0.00 0.00 0.00 85 1021.3
20260830133003 20 141 0.0 1.6 0.00 0.00 0.00 85 1021.4
20260830131616 19 127 0.0 1.6 0.00 0.00 0.00 86 1021.6
20260830130108 19 141 0.0 1.6 0.00 0.00 0.00 86 1021.9
20260830124558 18 141 0.0 1.6 0.00 0.00 0.00 87 1021.8
20260830123057 18 63 0.0 1.6 0.00 0.00 0.00 88 1021.8
20260830121552 18 56 0.0 1.6 0.00 0.00 0.00 89 1021.7
20260830120050 17 55 0.0 0.0 0.00 0.00 0.00 89 1021.8
20260830114551 17 55 0.0 1.6 0.00 0.00 0.00 89 1021.9
20260830113046 17 349 0.0 1.6 0.00 0.00 0.00 89 1021.9
20260830111544 17 333 0.0 0.0 0.00 0.00 0.00 90 1022.0
20260830110104 16 333 0.0 0.0 0.00 0.00 0.00 90 1021.9
20260830104544 16 333 0.0 1.6 0.00 0.00 0.00 90 1022.0
20260830103041 -17 0.0 0.0 0.00 0.00 0.00 1022.0
20260830101538 16 0.0 0.0 0.00 0.00 0.00 90 1021.8
20260830100037 16 333 0.0 1.6 0.00 0.00 0.00 89 1022.0
20260830094536 16 333 0.0 0.0 0.00 0.00 0.00 90 1022.0
20260830093049 16 142 0.0 1.6 0.00 0.00 0.00 89 1022.0
20260830091534 16 333 0.0 1.6 0.00 0.00 0.00 89 1022.0
20260830090038 16 182 0.0 0.0 0.00 0.00 0.00 91 1022.0
20260830084531 16 182 0.0 0.0 0.00 0.00 0.00 93 1022.1
20260830083030 16 182 0.0 0.0 0.00 0.00 0.00 93 1022.3